Location: Bergnershof
(48.9468°N, 10.9431°E)
Time: 09:39:03
(UTC+00:00)

Cosmos 2263 Rocket - Pass Details

Date: 03 March 2021
Orbit: 825 x 847 km, 71.0° (Epoch: 13 April)

Event Time Altitude Azimuth Distance (km) Brightness Sun altitude
Rises 17:46:59 0° 327° (NNW) 3,374 5.8 -8.0°
Reaches altitude 10° 17:49:31 10° 320° (NW) 2,436 5.2 -8.4°
Maximum altitude 17:54:43 42° 252° (WSW) 1,172 3.6 -9.3°
Drops below altitude 10° 17:59:54 10° 183° (S) 2,423 4.6 -10.1°
Sets 18:02:25 0° 176° (S) 3,354 5.3 -10.6°
